Flag for Turkey Weather past 2 weeks in Ankara, Turkey

Now
79 °F

Passing clouds.


Feels Like: 79 °F
Forecast: 61 / 90 °F
Wind: 14 mph from Northeast

Location: Ankara / Esenboga

Current Time: Jul 26, 2014 at 11:16:27 AM

Latest Report: Jul 26, 2014 at 10:20 AM


Visibility: N/A

Pressure: 29.89 "Hg

Humidity: 34%

Dew point: 48 °F

Location of AnkaraLocation

Historic Weather in Ankara — Graph

°F

Ankara temperature yesterday

Maximum temperature yesterday: 88 °F (at 4:50 PM)
Minimum temperature yesterday: 57 °F (at 5:50 AM)
Average temperature yesterday: 74 °F

Past Weeks' High & Low Weather Summary

 TemperatureHumidityPressure
High95 °F (Jul 11, 3:50 PM)94% (Jul 19, 5:20 AM)29.98 "Hg (Jul 19, 5:20 AM)
Low57 °F (Jul 20, 5:20 AM)13% (Jul 11, 4:20 PM)29.71 "Hg (Jul 24, 3:50 PM)
Average75 °F46%29.87 "Hg
* Reported Jul 11 9:20 AM — Jul 26 9:50 AM, Ankara, Weather by CustomWeather, © 2014

Note: Actual official high and low records may vary slightly from our data, if they occured in-between our weather recording intervals... More about our weather records

Advertising

Ankara weather history for previous 24 hours

 ConditionsComfort  
Time TempWeatherWind HumidityBarometerVisibility
9:50 AM
Jul 26
77 °FSunny.14 mph36%29.89 "Hg10 mi
9:20 AM77 °FSunny.15 mph39%29.89 "Hg10 mi
8:50 AM75 °FSunny.13 mph41%29.89 "Hg10 mi
8:20 AM73 °FSunny.13 mph47%29.89 "Hg10 mi
7:50 AM72 °FSunny.12 mph50%29.89 "Hg10 mi
7:20 AM70 °FSunny.9 mph53%29.89 "Hg10 mi
6:50 AM66 °FSunny.9 mph60%29.89 "Hg10 mi
6:20 AM66 °FClear.12 mph60%29.89 "Hg10 mi
5:50 AM64 °FClear.10 mph68%29.89 "Hg10 mi
5:20 AM64 °FClear.9 mph68%29.89 "Hg10 mi
4:50 AM64 °FClear.12 mph68%29.89 "Hg10 mi
4:20 AM64 °FClear.8 mph64%29.89 "Hg10 mi
3:50 AM64 °FClear.8 mph60%29.89 "Hg10 mi
3:20 AM66 °FClear.10 mph60%29.89 "Hg10 mi
2:50 AM68 °FClear.9 mph56%29.89 "Hg10 mi
2:20 AM68 °FClear.8 mph56%29.89 "Hg10 mi
1:50 AM68 °FClear.7 mph56%29.89 "Hg10 mi
1:20 AM70 °FClear.9 mph53%29.89 "Hg10 mi
12:50 AM72 °FClear.12 mph50%29.89 "Hg10 mi
12:20 AM72 °FClear.12 mph50%29.89 "Hg10 mi
11:50 PM
Jul 25
73 °FClear.15 mph47%29.89 "Hg10 mi
11:20 PM73 °FClear.16 mph50%29.89 "Hg10 mi
10:50 PM75 °FClear.16 mph54%29.86 "Hg10 mi
10:20 PM73 °FClear.14 mph53%29.86 "Hg10 mi
9:50 PM75 °FClear.18 mph50%29.86 "Hg10 mi
9:20 PM77 °FClear.16 mph44%29.86 "Hg10 mi
8:50 PM79 °FPassing clouds.17 mph42%29.83 "HgN/A
8:20 PM79 °FPassing clouds.17 mph42%29.83 "HgN/A
7:50 PM81 °FPassing clouds.16 mph39%29.80 "HgN/A
7:20 PM82 °FScattered clouds.15 mph35%29.80 "HgN/A
6:50 PM86 °FScattered clouds.14 mph25%29.80 "HgN/A
6:20 PM86 °FScattered clouds.12 mph27%29.80 "HgN/A
5:50 PM86 °FScattered clouds.12 mph25%29.80 "HgN/A
5:20 PM86 °FScattered clouds.10 mph25%29.80 "HgN/A
4:50 PM88 °FScattered clouds.12 mph25%29.80 "HgN/A
4:20 PM86 °FScattered clouds.9 mph27%29.80 "HgN/A
3:50 PM86 °FScattered clouds.7 mph29%29.80 "HgN/A
3:20 PM86 °FScattered clouds.9 mph27%29.83 "HgN/A
2:50 PM86 °FScattered clouds.6 mph27%29.83 "HgN/A
2:20 PM84 °FScattered clouds.5 mph29%29.83 "HgN/A
1:50 PM84 °FScattered clouds.5 mph29%29.83 "HgN/A
1:20 PM82 °FScattered clouds.7 mph30%29.83 "HgN/A
12:50 PM81 °FScattered clouds.8 mph34%29.86 "HgN/A
12:20 PM82 °FScattered clouds.7 mph32%29.86 "HgN/A
11:50 AM79 °FScattered clouds.7 mph37%29.86 "HgN/A
11:20 AM79 °FScattered clouds.9 mph37%29.86 "HgN/A
Weather by CustomWeather, © 2014

See weather overviewHow to use our weather pages